Weather History for Trabzon, Turkey

Change the Weather History Date:

Friday, January 11, 2013

  Actual Average Record
Temperature  
Mean Temperature 44 °F -  
Max Temperature 50 °F 49 °F 68 °F (2003)
Min Temperature 37 °F 39 °F 33 °F (2008)
Degree Days  
Heating Degree Days 22    
Moisture  
Dew Point 20 °F    
Average Humidity 39    
Maximum Humidity 56    
Minimum Humidity 13    
Precipitation  
Precipitation 0.00 in - - ()
Sea Level Pressure  
Sea Level Pressure 30.15 in    
Wind  
Wind Speed 10 mph ()    
Max Wind Speed 28 mph    
Max Gust Speed 39 mph    
Visibility 6.4 miles    
Events      
Averages and records for this station are not official NWS values.
T = Trace of Precipitation, MM = Missing Value Source: Averaged Metar Reports

Daily Weather History Graph

Daily Weather History Graph

Search for Another Location

Airport:

Trip Planner

Search our weather history database for the weather conditions in past years. The results will help you decide how hot, cold, wet, or windy it might be!

Date:

Astronomy

Jan. 11, 2013 Rise Set
Actual Time 6:44 AM EET 4:12 PM EET
Civil Twilight 6:14 AM EET 4:43 PM EET
Nautical Twilight 5:40 AM EET 5:17 PM EET
Astronomical Twilight 5:07 AM EET 5:50 PM EET
Moon 5:59 AM EET (1/11) 4:05 PM EET (1/11)
Length of Visible Light 10h 29m
Length of Day
9h 27m
Waning Crescent, 0% of the Moon is Illuminated
Jan 11
Waning Crescent
Jan 11
New
Jan 19
First Quarter
Jan 27
Full
Feb 3
Last Quarter

Hourly Weather History & Observations

Time (EET) Temp. Windchill Dew Point Humidity Pressure Visibility Wind Dir Wind Speed Gust Speed Precip Events Conditions
12:20 AM 37.4 °F 29.8 °F 23.0 °F 56% 30.18 in 6.2 mi SSW 11.5 mph - N/A   Partly Cloudy
12:50 AM 39.2 °F 33.0 °F 19.4 °F 45% 30.18 in 6.2 mi SSE 9.2 mph - N/A   Partly Cloudy
1:20 AM 39.2 °F 35.0 °F 19.4 °F 45% 30.18 in 6.2 mi SSE 5.8 mph - N/A   Partly Cloudy
1:50 AM 39.2 °F 34.2 °F 19.4 °F 45% 30.18 in 6.2 mi SSE 6.9 mph - N/A   Partly Cloudy
2:00 AM 40 °F - 20 °F 31% 30.20 in 6 mi SSE 6.9 mph - -   Scattered Clouds
2:20 AM 37.4 °F 33.8 °F 19.4 °F 48% 30.18 in 6.2 mi Variable 4.6 mph - N/A   Partly Cloudy
2:50 AM 39.2 °F 33.6 °F 19.4 °F 45% 30.18 in 6.2 mi SSW 8.1 mph - N/A   Partly Cloudy
3:20 AM 39.2 °F 33.6 °F 17.6 °F 42% 30.18 in 6.2 mi SSW 8.1 mph - N/A   Partly Cloudy
3:50 AM 39.2 °F 32.0 °F 19.4 °F 45% 30.15 in 6.2 mi SSW 11.5 mph - N/A   Partly Cloudy
4:20 AM 39.2 °F 32.5 °F 19.4 °F 45% 30.15 in 6.2 mi SSW 10.4 mph - N/A   Partly Cloudy
4:50 AM 39.2 °F 32.0 °F 17.6 °F 42% 30.15 in 6.2 mi SSW 11.5 mph - N/A   Partly Cloudy
5:20 AM 41.0 °F 33.5 °F 15.8 °F 36% 30.18 in 6.2 mi SSW 13.8 mph - N/A   Partly Cloudy
5:50 AM 39.2 °F 32.5 °F 17.6 °F 42% 30.18 in 6.2 mi SSE 10.4 mph - N/A   Partly Cloudy
6:20 AM 39.2 °F 33.0 °F 17.6 °F 42% 30.18 in 6.2 mi South 9.2 mph - N/A   Partly Cloudy
6:50 AM 39.2 °F 32.0 °F 15.8 °F 39% 30.18 in 6.2 mi South 11.5 mph - N/A   Partly Cloudy
7:20 AM 39.2 °F 35.9 °F 17.6 °F 42% 30.18 in 6.2 mi South 4.6 mph - N/A   Partly Cloudy
7:50 AM 41.0 °F 36.4 °F 17.6 °F 39% 30.18 in 6.2 mi South 6.9 mph - N/A   Partly Cloudy
8:20 AM 42.8 °F 38.0 °F 15.8 °F 34% 30.18 in 4.3 mi SE 8.1 mph - N/A   Partly Cloudy
8:50 AM 44.6 °F - 23.0 °F 43% 30.18 in 6.2 mi NE 2.3 mph - N/A   Partly Cloudy
9:20 AM 44.6 °F 41.4 °F 23.0 °F 43% 30.18 in 6.2 mi NE 5.8 mph - N/A   Partly Cloudy
9:50 AM 44.6 °F 42.2 °F 23.0 °F 43% 30.21 in 6.2 mi ENE 4.6 mph - N/A   Partly Cloudy
10:20 AM 44.6 °F 40.7 °F 24.8 °F 46% 30.18 in 6.2 mi East 6.9 mph - N/A   Partly Cloudy
10:50 AM 44.6 °F 42.2 °F 24.8 °F 46% 30.18 in 6.2 mi East 4.6 mph - N/A   Partly Cloudy
11:20 AM 46.4 °F 43.5 °F 24.8 °F 43% 30.18 in 6.2 mi East 5.8 mph - N/A   Partly Cloudy
11:50 AM 46.4 °F 42.9 °F 26.6 °F 46% 30.15 in 6.2 mi East 6.9 mph - N/A   Partly Cloudy
12:20 PM 46.4 °F 41.9 °F 28.4 °F 50% 30.15 in 6.2 mi East 9.2 mph - N/A   Partly Cloudy
12:50 PM 46.4 °F 40.7 °F 28.4 °F 50% 30.15 in 6.2 mi East 12.7 mph - N/A   Mostly Cloudy
1:20 PM 46.4 °F 41.1 °F 28.4 °F 50% 30.15 in 6.2 mi East 11.5 mph - N/A   Mostly Cloudy
1:50 PM 46.4 °F 40.7 °F 28.4 °F 50% 30.12 in 6.2 mi East 12.7 mph - N/A   Mostly Cloudy
2:00 PM 46 °F - 28 °F 37% 30.15 in 12 mi East 12.7 mph - -   Partly Cloudy
2:20 PM 44.6 °F 38.4 °F 28.4 °F 53% 30.12 in 6.2 mi ESE 12.7 mph - N/A   Mostly Cloudy
2:50 PM 46.4 °F 40.7 °F 28.4 °F 50% 30.12 in 6.2 mi SE 12.7 mph - N/A   Mostly Cloudy
3:20 PM 44.6 °F 40.2 °F 26.6 °F 49% 30.12 in 6.2 mi SE 8.1 mph - N/A   Mostly Cloudy
3:50 PM 44.6 °F 40.2 °F 26.6 °F 49% 30.12 in 6.2 mi ESE 8.1 mph - N/A   Mostly Cloudy
4:20 PM 44.6 °F 39.7 °F 26.6 °F 49% 30.15 in 6.2 mi SE 9.2 mph - N/A   Mostly Cloudy
4:50 PM 44.6 °F 40.7 °F 24.8 °F 46% 30.15 in 6.2 mi SE 6.9 mph - N/A   Mostly Cloudy
5:20 PM 44.6 °F 39.2 °F 23.0 °F 43% 30.15 in 6.2 mi ESE 10.4 mph - N/A   Mostly Cloudy
5:50 PM 44.6 °F 39.7 °F 24.8 °F 46% 30.12 in 6.2 mi East 9.2 mph - N/A   Scattered Clouds
6:20 PM 48.2 °F - 15.8 °F 27% 30.12 in 6.2 mi SSW 15.0 mph - N/A   Scattered Clouds
6:50 PM 48.2 °F - 14.0 °F 25% 30.12 in 6.2 mi SSW 20.7 mph - N/A   Scattered Clouds
7:20 PM 48.2 °F - 14.0 °F 25% 30.12 in 6.2 mi SSW 24.2 mph - N/A   Scattered Clouds
7:50 PM 48.2 °F - 12.2 °F 24% 30.12 in 6.2 mi SSW 20.7 mph - N/A   Scattered Clouds
8:00 PM 49 °F - 13 °F 13% 30.15 in 12 mi SSW 20.7 mph - -   Partly Cloudy
8:20 PM 50.0 °F - 12.2 °F 22% 30.12 in 6.2 mi SSW 23.0 mph - N/A   Scattered Clouds
8:50 PM 48.2 °F - 14.0 °F 25% 30.12 in 6.2 mi SSW 23.0 mph - N/A   Scattered Clouds
9:20 PM 48.2 °F - 14.0 °F 25% 30.12 in 6.2 mi SSW 24.2 mph 36.8 mph N/A   Scattered Clouds
9:50 PM 48.2 °F - 14.0 °F 25% 30.12 in 6.2 mi SSW 26.5 mph - N/A   Scattered Clouds
10:20 PM 48.2 °F - 14.0 °F 25% 30.12 in 6.2 mi SSW 25.3 mph - N/A   Scattered Clouds
10:50 PM 48.2 °F - 14.0 °F 25% 30.12 in 6.2 mi SSW 27.6 mph 39.1 mph N/A   Scattered Clouds
11:20 PM 48.2 °F - 14.0 °F 25% 30.12 in 6.2 mi SSW 25.3 mph 38.0 mph N/A   Scattered Clouds
11:50 PM 50.0 °F - 14.0 °F 24% 30.12 in 6.2 mi SSW 25.3 mph 38.0 mph N/A   Scattered Clouds